This demonstration page uses our WeatherBlox Daily Observations layout. Learn more.

Left ArrowRight Arrow

Hourly Observations for June 26, 2017

Temp ( °F °C ) Dew Point ( °F °C ) Humidity (%) Winds ( mph kmh ) Pressure ( in mb ) Visibility ( mi km ) Precip ( " mm )
12:07 am 00:07 Clear 59 15 50 10 72 72 W 5 7 30.15 1021 10 16 N/A
12:27 am 00:27 Clear 57 14 50 10 77 77 W 6 9 30.15 1021 10 16 N/A
12:47 am 00:47 Clear 57 14 48 9 72 72 W 6 9 30.15 1021 10 16 N/A
1:07 am 01:07 Clear 57 14 48 9 72 72 W 6 9 30.15 1021 10 16 N/A
1:27 am 01:27 Clear 57 14 48 9 72 72 WNW 7 11 30.15 1021 10 16 N/A
1:46 am 01:46 Clear 55 13 48 9 77 77 W 6 9 30.15 1021 10 16 N/A
2:07 am 02:07 Clear 55 13 50 10 82 82 WNW 6 9 30.15 1021 10 16 N/A
2:27 am 02:27 Clear 55 13 48 9 77 77 WNW 5 7 30.15 1021 10 16 N/A
2:47 am 02:47 Clear 54 12 50 10 88 88 W 5 7 30.18 1022 10 16 N/A
3:07 am 03:07 Clear 54 12 48 9 82 82 W 3 6 30.18 1022 10 16 N/A
3:27 am 03:27 Clear 55 13 50 10 82 82 WSW 3 6 30.15 1021 10 16 N/A
3:47 am 03:47 Clear 54 12 50 10 88 88 WSW 5 7 30.18 1022 10 16 N/A
4:07 am 04:07 Clear 54 12 50 10 88 88 WSW 5 7 30.18 1022 10 16 N/A
4:27 am 04:27 Clear 54 12 50 10 88 88 WSW 6 9 30.18 1022 10 16 N/A
4:47 am 04:47 Clear 54 12 48 9 82 82 WSW 5 7 30.18 1022 10 16 N/A
5:07 am 05:07 Clear 54 12 50 10 88 88 WSW 7 11 30.18 1022 10 16 N/A
5:26 am 05:26 Clear 52 11 48 9 88 88 WSW 6 9 30.18 1022 10 16 N/A
5:47 am 05:47 Clear 52 11 48 9 88 88 W 7 11 30.18 1022 10 16 N/A
6:07 am 06:07 Clear 52 11 48 9 88 88 W 6 9 30.18 1022 10 16 N/A
6:27 am 06:27 Sunny 52 11 48 9 88 88 W 5 7 30.18 1022 10 16 N/A
6:47 am 06:47 Sunny 52 11 48 9 88 88 W 6 9 30.18 1022 10 16 N/A
7:06 am 07:06 Sunny 52 11 48 9 88 88 W 7 11 30.18 1022 10 16 N/A
7:27 am 07:27 Sunny 54 12 50 10 88 88 W 6 9 30.18 1022 10 16 N/A
7:47 am 07:47 Sunny 57 14 52 11 82 82 W 6 9 30.15 1021 10 16 N/A
8:07 am 08:07 Sunny 59 15 52 11 77 77 W 7 11 30.15 1021 10 16 N/A
8:27 am 08:27 Sunny 59 15 52 11 77 77 W 8 13 30.18 1022 10 16 N/A
8:47 am 08:47 Sunny 61 16 52 11 72 72 W 8 13 30.18 1022 10 16 N/A
9:07 am 09:07 Sunny 63 17 52 11 68 68 WNW 10 17 30.18 1022 10 16 N/A
9:27 am 09:27 Sunny 64 18 52 11 64 64 WNW 10 17 30.18 1022 10 16 N/A
9:47 am 09:47 Sunny 64 18 52 11 64 64 WNW 8 13 30.18 1022 10 16 N/A
10:07 am 10:07 Sunny 66 19 50 10 56 56 W 8 13 30.18 1022 10 16 N/A
10:27 am 10:27 Sunny 66 19 48 9 52 52 WNW 10 17 30.18 1022 10 16 N/A
10:47 am 10:47 Sunny 68 20 50 10 53 53 WNW 12 19 30.18 1022 10 16 N/A
11:07 am 11:07 Sunny 68 20 48 9 49 49 WNW 12 19 30.15 1021 10 16 N/A
11:27 am 11:27 Partly Cloudy 68 20 48 9 49 49 W 13 20 30.15 1021 10 16 N/A
11:47 am 11:47 Partly Cloudy 70 21 46 8 43 43 WNW 12 19 30.18 1022 10 16 N/A
12:06 pm 12:06 Partly Cloudy 68 20 46 8 46 46 WNW 13 20 30.15 1021 10 16 N/A
12:27 pm 12:27 Partly Cloudy 72 22 48 9 44 44 W 15 24 30.15 1021 10 16 N/A
12:47 pm 12:47 Partly Cloudy 70 21 46 8 43 43 W 15 24 30.15 1021 10 16 N/A
1:07 pm 13:07 Partly Cloudy 70 21 46 8 43 43 W 14 22 30.15 1021 10 16 N/A
1:27 pm 13:27 Mostly Cloudy 72 22 48 9 44 44 WNW 13 20 30.15 1021 10 16 N/A
1:47 pm 13:47 Mostly Cloudy 70 21 46 8 43 43 W 16 26 30.15 1021 10 16 N/A
2:07 pm 14:07 Mostly Cloudy 72 22 48 9 44 44 W 15 24 30.15 1021 10 16 N/A
2:27 pm 14:27 Mostly Cloudy 72 22 46 8 41 41 W 15 24 30.15 1021 10 16 N/A
2:47 pm 14:47 Partly Cloudy 72 22 50 10 47 47 W 15 24 30.09 1019 10 16 N/A
3:07 pm 15:07 Partly Cloudy 73 23 48 9 41 41 WSW 15 24 30.09 1019 10 16 N/A
3:27 pm 15:27 Mostly Cloudy 70 21 48 9 46 46 W 12 19 30.12 1020 10 16 N/A
3:47 pm 15:47 Cloudy 70 21 48 9 46 46 W 14 22 30.12 1020 10 16 N/A
4:07 pm 16:07 Mostly Cloudy 70 21 46 8 43 43 W 16 26 30.12 1020 10 16 N/A
4:27 pm 16:27 Cloudy 68 20 46 8 46 46 W 15 24 30.12 1020 10 16 N/A
4:47 pm 16:47 Mostly Cloudy 70 21 46 8 43 43 W 13 20 30.12 1020 10 16 N/A
5:07 pm 17:07 Sunny 70 21 46 8 43 43 W 14 22 30.09 1019 10 16 N/A
5:27 pm 17:27 Sunny 70 21 46 8 43 43 W 17 28 30.09 1019 10 16 N/A
5:47 pm 17:47 Mostly Cloudy 68 20 46 8 46 46 W 13 20 30.09 1019 10 16 N/A
6:07 pm 18:07 Partly Cloudy 70 21 46 8 43 43 W 16 26 30.09 1019 10 16 N/A
6:27 pm 18:27 Sunny 70 21 48 9 46 46 W 16 26 30.06 1018 10 16 N/A
6:47 pm 18:47 Partly Cloudy 72 22 48 9 44 44 W 17 28 30.03 1017 10 16 N/A
7:07 pm 19:07 Partly Cloudy 70 21 46 8 43 43 W 17 28 30.06 1018 10 16 N/A
7:27 pm 19:27 Sunny 70 21 48 9 46 46 WSW 13 20 30.06 1018 10 16 N/A
7:47 pm 19:47 Sunny 70 21 48 9 46 46 W 13 20 30.06 1018 10 16 N/A
8:07 pm 20:07 Partly Cloudy 68 20 48 9 49 49 W 15 24 30.06 1018 10 16 N/A
8:27 pm 20:27 Partly Cloudy 66 19 46 8 49 49 NNW 24 39 30.09 1019 10 16 N/A
8:47 pm 20:47 Mostly Cloudy 61 16 46 8 59 59 NNW 15 24 30.09 1019 10 16 N/A
9:07 pm 21:07 Cloudy 57 14 52 11 82 82 NW 13 20 30.09 1019 10 16 N/A
9:27 pm 21:27 Cloudy 55 13 52 11 88 88 WNW 6 9 30.09 1019 10 16 N/A
9:47 pm 21:47 Mostly Cloudy 55 13 52 11 88 88 N N/A 30.06 1018 10 16 N/A
10:07 pm 22:07 Partly Cloudy 55 13 52 11 88 88 W 3 6 30.06 1018 10 16 N/A
10:27 pm 22:27 Clear 54 12 52 11 94 94 W 5 7 30.09 1019 10 16 N/A
10:47 pm 22:47 Clear 55 13 52 11 88 88 SW 3 6 30.06 1018 10 16 N/A
11:07 pm 23:07 Mostly Cloudy 55 13 52 11 88 88 SW 3 6 30.09 1019 10 16 N/A
11:27 pm 23:27 Partly Cloudy 55 13 52 11 88 88 SSW 3 6 30.09 1019 10 16 N/A
11:47 pm 23:47 Partly Cloudy 55 13 50 10 82 82 WSW 6 9 30.09 1019 10 16 N/A

Powered by AerisWeather